User: anonymous   Login
Location: Caltech
(34.1382°N, 118.1253°W)
Time: 12:14:09
(UTC-07:00)
Language:

ITAMSAT 1 - Orbit

View from above orbital plane
View from above orbital plane
View from above satellite
View from above satellite

Ground track
Ground track

The orbit data is extracted from the following two-line orbital elements,

1 22826U 93061D   16150.10141282  .00000026  00000-0  27266-4 0  9996
2 22826  98.7521 106.3577 0009196  12.2638 347.8766 14.30280543182675
Epoch (UTC): 29 May 2016 02:26:02
Eccentricity: 0.0009196
inclination: 98.7521°
perigee height: 784 km
apogee height: 797 km
right ascension of ascending node: 106.3577°
argument of perigee: 12.2638°
revolutions per day: 14.30280543
mean anomaly at epoch: 347.8766°
orbit number at epoch: 18267

The dashed part of the orbit path shows where the satellite is in the earth's shadow,  

DLR